When you browse on this site, cookies collect data to enhance your experience and personalize the content and advertising you see.
Visit our Privacy Policy to learn more. By continuing to use the site, you agree to this use of cookies and data.
  • en Suisse
  • Liste des pays
  • À 7 jours
  • Température de l'eau
  • Carte satellitaire
  • Carte météo
  • Widgets météo
  • user-avatar
    Se connecter

    Météo par heure à Platonove

    Ce jour, 16 Juillet, Mardi

    Heure Température Précipitation Vent Pression Humidité
    00:00 +14°C° 0 mm 3 m/s 743 mmHg 91%
    01:00 +14°C° 0 mm 3 m/s 743 mmHg 91%
    02:00 +14°C° 0 mm 3 m/s 743 mmHg 92%
    03:00 +14°C° 0 mm 3 m/s 743 mmHg 91%
    04:00 +13°C° 0 mm 3 m/s 743 mmHg 91%
    05:00 +13°C° 0 mm 3 m/s 743 mmHg 90%
    06:00 +16°C° 0 mm 3 m/s 743 mmHg 83%
    07:00 +18°C° 0 mm 3 m/s 743 mmHg 75%
    08:00 +20°C° 0 mm 3 m/s 744 mmHg 68%
    09:00 +21°C° 0 mm 3 m/s 744 mmHg 63%
    10:00 +22°C° 0 mm 3 m/s 744 mmHg 57%
    11:00 +23°C° 0 mm 4 m/s 744 mmHg 51%
    12:00 +25°C° 0 mm 3 m/s 743 mmHg 49%
    13:00 +26°C° 0 mm 3 m/s 743 mmHg 47%
    14:00 +26°C° 0 mm 3 m/s 743 mmHg 44%
    15:00 +26°C° 0 mm 3 m/s 743 mmHg 45%
    16:00 +26°C° 0 mm 3 m/s 743 mmHg 45%
    17:00 +26°C° 0 mm 3 m/s 743 mmHg 46%
    18:00 +24°C° 0 mm 3 m/s 743 mmHg 52%
    19:00 +22°C° 0 mm 3 m/s 743 mmHg 59%
    20:00 +20°C° 0 mm 2 m/s 743 mmHg 66%
    21:00 +19°C° 0 mm 2 m/s 743 mmHg 69%
    22:00 +18°C° 0 mm 2 m/s 743 mmHg 72%
    23:00 +18°C° 0 mm 1 m/s 743 mmHg 75%

    Demain, 17 Juillet, Mercredi

    Heure Température Précipitation Vent Pression Humidité
    00:00 +18°C° 0 mm 1 m/s 743 mmHg 75%
    01:00 +18°C° 0 mm 1 m/s 743 mmHg 76%
    02:00 +16°C° 0 mm 1 m/s 743 mmHg 77%
    03:00 +16°C° 0 mm 1 m/s 743 mmHg 78%
    04:00 +16°C° 0 mm 1 m/s 743 mmHg 79%
    05:00 +15°C° 0 mm 1 m/s 743 mmHg 81%
    06:00 +17°C° 0 mm 2 m/s 743 mmHg 75%
    07:00 +19°C° 0 mm 2 m/s 743 mmHg 69%
    08:00 +21°C° 0 mm 3 m/s 744 mmHg 63%
    09:00 +22°C° 0.1 mm 3 m/s 743 mmHg 60%
    10:00 +24°C° 0.1 mm 3 m/s 743 mmHg 57%
    11:00 +25°C° 0.1 mm 3 m/s 743 mmHg 54%
    12:00 +25°C° 0.5 mm 3 m/s 743 mmHg 54%
    13:00 +25°C° 0.5 mm 3 m/s 743 mmHg 55%
    14:00 +25°C° 0.5 mm 3 m/s 743 mmHg 56%
    15:00 +25°C° 0.1 mm 3 m/s 742 mmHg 54%
    16:00 +25°C° 0.1 mm 3 m/s 742 mmHg 52%
    17:00 +26°C° 0.1 mm 3 m/s 742 mmHg 50%
    18:00 +24°C° 0 mm 3 m/s 742 mmHg 56%
    19:00 +21°C° 0 mm 3 m/s 742 mmHg 62%
    20:00 +20°C° 0 mm 3 m/s 743 mmHg 68%
    21:00 +19°C° 0 mm 2 m/s 743 mmHg 70%
    22:00 +18°C° 0 mm 2 m/s 743 mmHg 73%
    23:00 +18°C° 0 mm 2 m/s 743 mmHg 75%

    Après-demain, 18 Juillet, Jeudi

    Heure Température Précipitation Vent Pression Humidité
    00:00 +18°C° 0 mm 2 m/s 743 mmHg 74%
    01:00 +18°C° 0 mm 2 m/s 743 mmHg 74%
    02:00 +18°C° 0 mm 2 m/s 743 mmHg 74%
    03:00 +17°C° 0 mm 2 m/s 743 mmHg 75%
    04:00 +17°C° 0 mm 2 m/s 744 mmHg 76%
    05:00 +18°C° 0 mm 1 m/s 744 mmHg 77%
    06:00 +18°C° 0 mm 2 m/s 744 mmHg 72%
    07:00 +19°C° 0 mm 3 m/s 744 mmHg 67%
    08:00 +20°C° 0 mm 3 m/s 744 mmHg 61%
    09:00 +21°C° 0 mm 3 m/s 744 mmHg 56%
    10:00 +23°C° 0 mm 4 m/s 745 mmHg 51%
    11:00 +25°C° 0 mm 4 m/s 745 mmHg 46%
    12:00 +25°C° 0 mm 4 m/s 745 mmHg 46%
    13:00 +25°C° 0 mm 4 m/s 744 mmHg 46%
    14:00 +25°C° 0 mm 4 m/s 744 mmHg 46%
    15:00 +25°C° 0 mm 4 m/s 744 mmHg 46%
    16:00 +25°C° 0 mm 4 m/s 745 mmHg 46%
    17:00 +25°C° 0 mm 3 m/s 745 mmHg 46%
    18:00 +24°C° 0 mm 3 m/s 745 mmHg 51%
    19:00 +21°C° 0 mm 2 m/s 745 mmHg 55%
    20:00 +20°C° 0 mm 2 m/s 745 mmHg 60%
    21:00 +20°C° 0 mm 1 m/s 745 mmHg 61%
    22:00 +19°C° 0 mm 1 m/s 746 mmHg 63%
    23:00 +19°C° 0 mm 1 m/s 746 mmHg 65%

    19 Juillet, Vendredi

    Heure Température Précipitation Vent Pression Humidité
    00:00 +18°C° 0 mm 1 m/s 746 mmHg 66%
    01:00 +18°C° 0 mm 1 m/s 746 mmHg 67%
    02:00 +18°C° 0 mm 1 m/s 746 mmHg 68%
    03:00 +16°C° 0 mm 0 m/s 746 mmHg 68%
    04:00 +16°C° 0 mm 0 m/s 746 mmHg 69%
    05:00 +16°C° 0 mm 0 m/s 747 mmHg 70%
    06:00 +18°C° 0 mm 0 m/s 747 mmHg 64%
    07:00 +22°C° 0 mm 1 m/s 747 mmHg 59%
    08:00 +24°C° 0 mm 1 m/s 747 mmHg 53%
    09:00 +25°C° 0 mm 1 m/s 747 mmHg 50%
    10:00 +26°C° 0 mm 1 m/s 748 mmHg 47%
    11:00 +28°C° 0 mm 1 m/s 748 mmHg 44%
    12:00 +28°C° 0 mm 1 m/s 748 mmHg 42%
    13:00 +28°C° 0 mm 1 m/s 747 mmHg 41%
    14:00 +29°C° 0 mm 1 m/s 747 mmHg 40%
    15:00 +29°C° 0 mm 1 m/s 747 mmHg 40%
    16:00 +29°C° 0 mm 1 m/s 747 mmHg 40%
    17:00 +29°C° 0 mm 1 m/s 747 mmHg 40%
    18:00 +27°C° 0 mm 1 m/s 747 mmHg 47%
    19:00 +26°C° 0 mm 2 m/s 747 mmHg 53%
    20:00 +24°C° 0 mm 3 m/s 747 mmHg 60%
    21:00 +23°C° 0 mm 2 m/s 748 mmHg 64%
    22:00 +21°C° 0 mm 2 m/s 748 mmHg 69%
    23:00 +20°C° 0 mm 2 m/s 748 mmHg 73%

    20 Juillet, Samedi

    Heure Température Précipitation Vent Pression Humidité
    00:00 +20°C° 0.1 mm 2 m/s 748 mmHg 75%
    01:00 +19°C° 0.1 mm 2 m/s 748 mmHg 77%
    02:00 +20°C° 0.1 mm 1 m/s 748 mmHg 79%
    03:00 +19°C° 0 mm 1 m/s 748 mmHg 80%
    04:00 +18°C° 0 mm 2 m/s 748 mmHg 80%
    05:00 +18°C° 0 mm 2 m/s 748 mmHg 81%
    06:00 +20°C° 0 mm 3 m/s 748 mmHg 73%
    07:00 +22°C° 0 mm 3 m/s 748 mmHg 65%
    08:00 +25°C° 0 mm 4 m/s 749 mmHg 58%
    09:00 +27°C° 0 mm 5 m/s 749 mmHg 51%
    10:00 +28°C° 0 mm 5 m/s 749 mmHg 45%
    11:00 +30°C° 0 mm 5 m/s 749 mmHg 39%
    12:00 +32°C° 0 mm 5 m/s 749 mmHg 38%
    13:00 +32°C° 0 mm 5 m/s 748 mmHg 37%
    14:00 +33°C° 0 mm 5 m/s 748 mmHg 36%
    15:00 +32°C° 0 mm 4 m/s 748 mmHg 38%
    16:00 +32°C° 0 mm 4 m/s 748 mmHg 41%
    17:00 +30°C° 0 mm 3 m/s 748 mmHg 43%
    18:00 +29°C° 0 mm 4 m/s 748 mmHg 43%
    19:00 +27°C° 0 mm 4 m/s 748 mmHg 44%
    20:00 +26°C° 0 mm 5 m/s 748 mmHg 44%
    21:00 +25°C° 0 mm 3 m/s 749 mmHg 49%
    22:00 +24°C° 0 mm 2 m/s 749 mmHg 55%
    23:00 +23°C° 0 mm 1 m/s 749 mmHg 60%

    21 Juillet, Dimanche

    Heure Température Précipitation Vent Pression Humidité
    00:00 +22°C° 0 mm 1 m/s 749 mmHg 63%
    01:00 +22°C° 0 mm 1 m/s 749 mmHg 65%
    02:00 +21°C° 0 mm 1 m/s 749 mmHg 68%
    03:00 +21°C° 0 mm 1 m/s 749 mmHg 69%
    04:00 +20°C° 0 mm 1 m/s 749 mmHg 70%
    05:00 +20°C° 0 mm 1 m/s 749 mmHg 71%
    06:00 +22°C° 0 mm 1 m/s 750 mmHg 66%
    07:00 +23°C° 0 mm 1 m/s 750 mmHg 60%
    08:00 +25°C° 0 mm 1 m/s 750 mmHg 55%
    09:00 +27°C° 0 mm 2 m/s 750 mmHg 51%
    10:00 +28°C° 0 mm 2 m/s 751 mmHg 46%
    11:00 +30°C° 0 mm 2 m/s 751 mmHg 41%
    12:00 +31°C° 0 mm 2 m/s 750 mmHg 39%
    13:00 +31°C° 0 mm 2 m/s 750 mmHg 36%
    14:00 +32°C° 0 mm 1 m/s 750 mmHg 33%
    15:00 +32°C° 0 mm 1 m/s 750 mmHg 34%
    16:00 +31°C° 0 mm 1 m/s 750 mmHg 35%
    17:00 +31°C° 0 mm 1 m/s 750 mmHg 36%
    18:00 +29°C° 0 mm 1 m/s 750 mmHg 41%
    19:00 +27°C° 0 mm 1 m/s 750 mmHg 46%
    20:00 +25°C° 0 mm 2 m/s 750 mmHg 51%
    21:00 +25°C° 0 mm 1 m/s 750 mmHg 53%
    22:00 +24°C° 0 mm 1 m/s 750 mmHg 55%
    23:00 +23°C° 0 mm 1 m/s 750 mmHg 56%
    Voir plus